When you browse on this site, cookies collect data to enhance your experience and personalize the content and advertising you see.
Visit our Privacy Policy to learn more. By continuing to use the site, you agree to this use of cookies and data.
  • In Hungary
  • List of Countries
  • For 7 days
  • Water Temperature
  • Satellite Maps
  • Weather Map
  • News
  • Weather Widgets
  • user-avatar
    Login

    Hourly Weather Zamardi

    Today, 15 February, Friday

    Time Temperature Precipitation Wind Pressure Humidity
    00:00 +4°C° 0 mm 4 mps 764 mmHg 88%
    01:00 +4°C° 0 mm 2 mps 764 mmHg 93%
    02:00 +4°C° 0 mm 2 mps 764 mmHg 94%
    03:00 +4°C° 0 mm 2 mps 764 mmHg 94%
    04:00 +3°C° 0 mm 2 mps 764 mmHg 95%
    05:00 +3°C° 0 mm 2 mps 764 mmHg 95%
    06:00 +3°C° 0 mm 2 mps 764 mmHg 95%
    07:00 +3°C° 0 mm 2 mps 764 mmHg 96%
    08:00 +4°C° 0 mm 2 mps 764 mmHg 91%
    09:00 +5°C° 0 mm 2 mps 765 mmHg 86%
    10:00 +6°C° 0 mm 1 mps 765 mmHg 82%
    11:00 +8°C° 0 mm 1 mps 765 mmHg 76%
    12:00 +9°C° 0 mm 1 mps 765 mmHg 71%
    13:00 +9°C° 0 mm 0 mps 765 mmHg 66%
    14:00 +10°C° 0 mm 1 mps 765 mmHg 65%
    15:00 +10°C° 0 mm 1 mps 765 mmHg 65%
    16:00 +10°C° 0 mm 1 mps 764 mmHg 65%
    17:00 +9°C° 0 mm 1 mps 764 mmHg 70%
    18:00 +8°C° 0 mm 1 mps 764 mmHg 75%
    19:00 +7°C° 0 mm 1 mps 764 mmHg 81%
    20:00 +6°C° 0 mm 1 mps 764 mmHg 82%
    21:00 +6°C° 0 mm 1 mps 764 mmHg 84%
    22:00 +6°C° 0 mm 1 mps 764 mmHg 86%
    23:00 +5°C° 0 mm 1 mps 764 mmHg 86%

    Tomorrow, 16 February, Saturday

    Time Temperature Precipitation Wind Pressure Humidity
    00:00 +5°C° 0 mm 1 mps 764 mmHg 87%
    01:00 +5°C° 0 mm 1 mps 764 mmHg 88%
    02:00 +4°C° 0 mm 1 mps 764 mmHg 89%
    03:00 +4°C° 0 mm 1 mps 764 mmHg 89%
    04:00 +4°C° 0 mm 1 mps 764 mmHg 90%
    05:00 +4°C° 0 mm 1 mps 764 mmHg 90%
    06:00 +3°C° 0 mm 1 mps 764 mmHg 90%
    07:00 +3°C° 0 mm 1 mps 764 mmHg 90%
    08:00 +5°C° 0 mm 1 mps 764 mmHg 83%
    09:00 +6°C° 0 mm 1 mps 764 mmHg 77%
    10:00 +7°C° 0 mm 2 mps 764 mmHg 71%
    11:00 +8°C° 0 mm 2 mps 764 mmHg 66%
    12:00 +9°C° 0 mm 2 mps 763 mmHg 61%
    13:00 +10°C° 0 mm 2 mps 763 mmHg 55%
    14:00 +10°C° 0 mm 2 mps 763 mmHg 55%
    15:00 +10°C° 0 mm 2 mps 763 mmHg 55%
    16:00 +11°C° 0 mm 1 mps 762 mmHg 55%
    17:00 +10°C° 0 mm 1 mps 762 mmHg 60%
    18:00 +9°C° 0 mm 1 mps 762 mmHg 65%
    19:00 +8°C° 0 mm 1 mps 762 mmHg 70%
    20:00 +7°C° 0 mm 1 mps 762 mmHg 72%
    21:00 +7°C° 0 mm 1 mps 762 mmHg 73%
    22:00 +6°C° 0 mm 1 mps 762 mmHg 75%
    23:00 +6°C° 0 mm 1 mps 762 mmHg 77%

    Day after tomorrow, 17 February, Sunday

    Time Temperature Precipitation Wind Pressure Humidity
    00:00 +6°C° 0 mm 1 mps 762 mmHg 78%
    01:00 +6°C° 0 mm 1 mps 762 mmHg 79%
    02:00 +5°C° 0 mm 1 mps 762 mmHg 80%
    03:00 +5°C° 0 mm 1 mps 761 mmHg 80%
    04:00 +5°C° 0 mm 1 mps 761 mmHg 81%
    05:00 +4°C° 0 mm 1 mps 761 mmHg 81%
    06:00 +4°C° 0 mm 1 mps 761 mmHg 81%
    07:00 +4°C° 0 mm 1 mps 761 mmHg 81%
    08:00 +5°C° 0 mm 1 mps 761 mmHg 74%
    09:00 +7°C° 0 mm 1 mps 761 mmHg 66%
    10:00 +9°C° 0 mm 1 mps 761 mmHg 59%
    11:00 +10°C° 0 mm 1 mps 761 mmHg 54%
    12:00 +10°C° 0 mm 2 mps 761 mmHg 49%
    13:00 +13°C° 0 mm 2 mps 760 mmHg 44%
    14:00 +13°C° 0 mm 1 mps 760 mmHg 45%
    15:00 +13°C° 0 mm 1 mps 759 mmHg 46%
    16:00 +13°C° 0 mm 1 mps 759 mmHg 47%
    17:00 +11°C° 0 mm 1 mps 759 mmHg 51%
    18:00 +10°C° 0 mm 1 mps 759 mmHg 54%
    19:00 +9°C° 0 mm 1 mps 759 mmHg 58%
    20:00 +8°C° 0 mm 1 mps 759 mmHg 59%
    21:00 +8°C° 0 mm 1 mps 759 mmHg 60%
    22:00 +7°C° 0 mm 1 mps 759 mmHg 61%
    23:00 +6°C° 0 mm 0 mps 759 mmHg 63%

    18 February, Monday

    Time Temperature Precipitation Wind Pressure Humidity
    00:00 +6°C° 0 mm 0 mps 759 mmHg 64%
    01:00 +5°C° 0 mm 0 mps 759 mmHg 65%
    02:00 +5°C° 0 mm 0 mps 759 mmHg 66%
    03:00 +5°C° 0 mm 0 mps 758 mmHg 67%
    04:00 +4°C° 0 mm 0 mps 758 mmHg 68%
    05:00 +4°C° 0 mm 0 mps 758 mmHg 69%
    06:00 +4°C° 0 mm 0 mps 758 mmHg 71%
    07:00 +4°C° 0 mm 0 mps 758 mmHg 72%
    08:00 +5°C° 0 mm 0 mps 758 mmHg 66%
    09:00 +8°C° 0 mm 1 mps 759 mmHg 60%
    10:00 +10°C° 0 mm 1 mps 759 mmHg 54%
    11:00 +11°C° 0 mm 1 mps 759 mmHg 50%
    12:00 +12°C° 0 mm 1 mps 758 mmHg 47%
    13:00 +13°C° 0 mm 1 mps 758 mmHg 43%
    14:00 +13°C° 0 mm 1 mps 758 mmHg 44%
    15:00 +13°C° 0 mm 1 mps 757 mmHg 45%
    16:00 +13°C° 0 mm 1 mps 757 mmHg 45%
    17:00 +12°C° 0 mm 1 mps 757 mmHg 50%
    18:00 +11°C° 0 mm 1 mps 757 mmHg 54%
    19:00 +9°C° 0 mm 1 mps 757 mmHg 59%
    20:00 +9°C° 0 mm 1 mps 757 mmHg 61%
    21:00 +8°C° 0 mm 1 mps 757 mmHg 63%
    22:00 +8°C° 0 mm 1 mps 757 mmHg 66%
    23:00 +7°C° 0 mm 1 mps 757 mmHg 68%

    19 February, Tuesday

    Time Temperature Precipitation Wind Pressure Humidity
    00:00 +7°C° 0 mm 1 mps 757 mmHg 70%
    01:00 +6°C° 0 mm 1 mps 757 mmHg 72%
    02:00 +6°C° 0 mm 1 mps 757 mmHg 74%
    03:00 +6°C° 0 mm 1 mps 756 mmHg 75%
    04:00 +5°C° 0 mm 1 mps 756 mmHg 77%
    05:00 +5°C° 0 mm 1 mps 756 mmHg 79%
    06:00 +5°C° 0 mm 1 mps 756 mmHg 81%
    07:00 +4°C° 0 mm 1 mps 756 mmHg 82%
    08:00 +6°C° 0 mm 1 mps 757 mmHg 75%
    09:00 +8°C° 0 mm 1 mps 757 mmHg 68%
    10:00 +9°C° 0 mm 1 mps 757 mmHg 61%
    11:00 +10°C° 0 mm 2 mps 757 mmHg 57%
    12:00 +12°C° 0 mm 2 mps 756 mmHg 52%
    13:00 +13°C° 0 mm 2 mps 756 mmHg 47%
    14:00 +13°C° 0 mm 2 mps 756 mmHg 48%
    15:00 +13°C° 0 mm 2 mps 755 mmHg 48%
    16:00 +13°C° 0 mm 2 mps 755 mmHg 49%
    17:00 +12°C° 0 mm 2 mps 755 mmHg 54%
    18:00 +10°C° 0 mm 2 mps 755 mmHg 59%
    19:00 +9°C° 0 mm 1 mps 756 mmHg 64%
    20:00 +9°C° 0 mm 1 mps 756 mmHg 66%
    21:00 +8°C° 0 mm 1 mps 756 mmHg 67%
    22:00 +8°C° 0 mm 1 mps 756 mmHg 69%
    23:00 +8°C° 0 mm 1 mps 756 mmHg 68%

    20 February, Wednesday

    Time Temperature Precipitation Wind Pressure Humidity
    00:00 +6°C° 0 mm 2 mps 757 mmHg 68%
    01:00 +6°C° 0 mm 2 mps 757 mmHg 68%
    02:00 +6°C° 0 mm 2 mps 757 mmHg 69%
    03:00 +6°C° 0 mm 2 mps 757 mmHg 70%
    04:00 +5°C° 0 mm 2 mps 757 mmHg 71%
    05:00 +5°C° 0 mm 2 mps 757 mmHg 72%
    06:00 +5°C° 0 mm 2 mps 758 mmHg 73%
    07:00 +5°C° 0 mm 2 mps 758 mmHg 74%
    08:00 +6°C° 0 mm 2 mps 758 mmHg 69%
    09:00 +8°C° 0 mm 2 mps 759 mmHg 64%
    10:00 +10°C° 0 mm 2 mps 759 mmHg 59%
    11:00 +12°C° 0 mm 2 mps 759 mmHg 56%
    12:00 +12°C° 0 mm 3 mps 759 mmHg 53%
    13:00 +13°C° 0 mm 3 mps 759 mmHg 50%
    14:00 +14°C° 0 mm 2 mps 759 mmHg 50%
    15:00 +14°C° 0 mm 2 mps 759 mmHg 49%
    16:00 +14°C° 0 mm 2 mps 758 mmHg 49%
    17:00 +13°C° 0 mm 1 mps 759 mmHg 53%
    18:00 +11°C° 0 mm 1 mps 759 mmHg 58%
    19:00 +10°C° 0 mm 1 mps 759 mmHg 62%
    20:00 +10°C° 0 mm 1 mps 759 mmHg 64%
    21:00 +9°C° 0 mm 1 mps 759 mmHg 66%
    22:00 +9°C° 0 mm 1 mps 759 mmHg 68%
    23:00 +9°C° 0 mm 1 mps 759 mmHg 71%
    Show more